Regional Weather Roundup
Issued by NWS Green Bay, WI

Home | Current Version | Previous Version | Text Only | Print | Product List | Glossary On
Versions: 1 2 3 4 5 6 7 8 9 10 11 12 13 14 15 16 17 18 19 20 21 22 23 24 25 26 27 28 29 30 31 32 33 34 35 36 37 38 39 40 41 42 43 44 45 46 47 48 49 50
000
ASUS43 KGRB 262110
RWRGRB

NORTH-CENTRAL AND NORTHEAST WISCONSIN REGIONAL WEATHER ROUNDUP
NATIONAL WEATHER SERVICE GREEN BAY WI
300 PM CST MON JAN 26 2015

WIZ005-009-010>012-018-019-262200-
NORTH CENTRAL WISCONSIN

CITY           SKY/WX    TMP DP  RH WIND       PRES   REMARKS
IRONWOOD       CLOUDY    21  16  79 S8        29.69R
MANITOWISH WTR CLOUDY    19  15  86 S5        29.71R
ARBOR VITAE    CLOUDY    22  18  84 S7        29.72R
EAGLE RIVER    CLOUDY    20  15  79 S7        29.72S
LAND O LAKES   CLOUDY    21  17  82 S8        29.73R
RHINELANDER    CLOUDY    19  14  81 S8        29.73R WCI   9
PHILLIPS       CLOUDY    20  17  88 S6        29.72R
ANTIGO         FLURRIES  19  16  87 S12       29.76R WCI   7
TOMAHAWK       CLOUDY    19  16  86 CALM      29.74R
MERRILL        CLOUDY    20  17  85 S7        29.76R
$$

WIZ013-073-262200-
NORTHEAST WISCONSIN

CITY           SKY/WX    TMP DP  RH WIND       PRES   REMARKS
IRON MOUNTAIN  CLOUDY    22  15  75 S7        29.80R
MARINETTE      CLOUDY    25  21  86 SE9       29.85R
OCONTO         CLOUDY    25  22  87 CALM      29.85R
$$

WIZ017-030-035>037-045-262200-
CENTRAL WISCONSIN

CITY           SKY/WX    TMP DP  RH WIND       PRES   REMARKS
MEDFORD        CLOUDY    20  19  93 SE7       29.73R FOG
WAUSAU         CLOUDY    20  16  84 SE9       29.75R WCI   9
MOSINEE        CLOUDY    19  19 100 SE6       29.76
MARSHFIELD     CLOUDY    22  19  89 SE8       29.75R
WISC RAPIDS    CLOUDY    22  19  89 SE7       29.79R FOG
STEVENS POINT  MIX PCPN  20  18  91 S8        29.78S
WAUPACA        LGT SNOW  26  21  82 SE8       29.81S
SHAWANO        LGT SNOW  26  20  77 S9        29.83R
CLINTONVILLE   LGT SNOW  25  21  86 SE7       29.82R
$$

WIZ038-039-048-051-262200-
FOX VALLEY

CITY           SKY/WX    TMP DP  RH WIND       PRES   REMARKS
NWS GREEN BAY  LGT SNOW  26  20  77 MISG      29.84R
APPLETON       LGT SNOW  25  19  80 SE10      29.82
OSHKOSH        LGT SNOW  25  20  81 S9        29.82R
FOND DU LAC    LGT SNOW  25  19  78 S10       29.82F
$$

WIZ022-050-052-262200-
EAST CENTRAL WISCONSIN

CITY           SKY/WX    TMP DP  RH WIND       PRES   REMARKS
STURGEON BAY   CLOUDY    25  19  80 S8        29.87R
MANITOWOC      FLURRIES  28  21  75 S15       29.85S
SHEBOYGAN      CLOUDY    26  17  68 S13       29.84F
$$

LMZ563-521-522-541>543-262200-
LAKESHORE

STATION/POSITION TIME  TEMP    WIND        PRES    VSBY  WAVE
                       AIR SEA DIR/SP/G                  HT/PER
                 (UTC) (F)     (DEG/KT/KT) (MB)    (MI)  (FT/S)
SHEBOYGAN LKSHOR 2100   26     190/ 13/ 16 1011.9F
KEWAUNEE LKSHORE 2100   27     190/ 13/ 15 1010.2S
NORTHPORT PIER   2100   25     150/ 14/ 18 1011.9S
SISTER BAY LKSHO 2000   27     180/ 11/ 15   N/A
CHAMBERS ISLAND  2100   25     130/  5/  9 1011.5S
MENOMINEE LKSHOR 2100   24     150/  7     1011.7R
$$


USA.gov is the U.S. government's official web portal to all federal, state and local government web resources and services.